Regional Weather Roundup
Issued by NWS Boston, MA

Home | Current Version | Previous Version | Text Only | Print | Product List | Glossary On
Versions: 1 2 3 4 5 6 7 8 9 10 11 12 13 14 15 16 17 18 19 20 21 22 23 24 25 26 27 28 29 30 31 32 33 34 35 36 37 38 39 40 41 42 43 44 45 46 47 48 49 50
069
ASUS41 KBOX 311610
RWRBOX

REGIONAL WEATHER ROUNDUP
NATIONAL WEATHER SERVICE TAUNTON MA
1200 PM EDT WED AUG 31 2016

NOTE:  "FAIR" INDICATES FEW OR NO CLOUDS BELOW 12,000 FEET WITH NO
SIGNIFICANT WEATHER AND/OR OBSTRUCTIONS TO VISIBILITY.

MAZALL-311700-
EASTERN MASSACHUSETTS

CITY           SKY/WX    TMP DP  RH WIND       PRES   REMARKS
BOSTON         CLOUDY    81  64  56 W7        29.94F
BEVERLY        CLOUDY    79  66  64 W6        29.93F
LAWRENCE       PTSUNNY   79  64  60 SW8       29.96F
BEDFORD        CLOUDY    79  62  56 SW7       29.93F
BLUE HILL        N/A     77  64  64 W12       29.96F
NORWOOD        CLOUDY    80  66  62 SW8       29.94F
MARSHFIELD     MOSUNNY   81  68  65 VRB6G15   29.94F
PLYMOUTH       CLOUDY    80  66  62 SW13      29.96F
TAUNTON        CLOUDY    80  67  64 SW9       29.95F
NEW BEDFORD    PTSUNNY   81  68  64 SW9       29.96F
$$

MAZALL-311700-
CAPE COD AND THE ISLANDS

CITY           SKY/WX    TMP DP  RH WIND       PRES   REMARKS
FALMOUTH       CLOUDY    77  70  78 SW17      29.98
HYANNIS        PTSUNNY   79  69  71 SW13      29.95F
CHATHAM        CLOUDY    78  71  79 SW9       29.99F
PROVINCETOWN   PTSUNNY   79  69  71 SW13      29.96F
NANTUCKET      CLOUDY    73  68  84 S10       29.99F
MARTHAS VNYRD  CLOUDY    80  70  71 SW12      29.98F
$$

MAZALL-311700-
CENTRAL AND WESTERN MASSACHUSETTS

CITY           SKY/WX    TMP DP  RH WIND       PRES   REMARKS
WORCESTER      MOSUNNY   74  62  66 SW9       29.99F
FITCHBURG      MOSUNNY   79  61  53 NW8       29.96F
ORANGE         CLOUDY    75  62  64 S6        29.96F
SPRINGFIELD    CLOUDY    76  65  69 S7        29.95F
WESTFIELD      CLOUDY    76  67  73 SE6       29.95F
NORTH ADAMS    MOSUNNY   72  62  71 CALM      29.96F
PITTSFIELD     CLOUDY    70  61  73 W7        29.99F
$$

RIZALL-311700-
RHODE ISLAND

CITY           SKY/WX    TMP DP  RH WIND       PRES   REMARKS
PROVIDENCE     CLOUDY    81  66  60 SW10      29.97F
NEWPORT        CLOUDY    78  70  76 VRB6      29.97F
BLOCK ISLAND   CLOUDY    78  71  79 SW12      29.99F
SMITHFIELD     MOSUNNY   77  68  73 SW7       29.98F
WESTERLY       CLOUDY    79  69  71 SW8       29.98F
$$

CTZALL-311700-
CONNECTICUT

CITY           SKY/WX    TMP DP  RH WIND       PRES   REMARKS
BRADLEY INTL   CLOUDY    77  66  68 SW8       29.96F
HARTFORD       CLOUDY    81  68  64 S8        29.96F
BRIDGEPORT     PTSUNNY   81  69  67 SW10      29.97F
DANBURY        MOSUNNY   76  66  71 W5        30.00F
GROTON         CLOUDY    79  72  79 SW9       29.97F
NEW HAVEN      CLOUDY    79  69  71 SW8       29.98F
CHESTER        FAIR      79  70  73 SW3       29.98F
MERIDEN        CLOUDY    81  67  62 SW6       29.97F
WILLIMANTIC    CLOUDY    79  68  69 SW7       29.98F
OXFORD         CLOUDY    75  64  69 SW6       30.02F
$$

MEZ002-015-021-024-NHZ003-005-008-011-012-014-VTZ005-008-311700-
NORTHERN NEW ENGLAND

CITY           SKY/WX    TMP DP  RH WIND       PRES   REMARKS
PORTLAND ME    CLOUDY    75  61  61 W8        29.91F
BANGOR ME      CLOUDY    74  62  66 W6        29.87F
CONCORD NH     MOSUNNY   80  60  50 SW6       29.93F
MANCHESTER NH  CLOUDY    79  60  52 SW3       29.92F
NASHUA NH      NOT AVBL
PORTSMOUTH NH  PTSUNNY   79  60  52 W7        29.91F
JAFFREY NH     CLOUDY    75  58  55 SW7       29.98F
KEENE NH       CLOUDY    73  63  70 CALM      29.96F
BURLINGTON VT  PTSUNNY   69  62  78 S12       29.90F
MT. WASHINGTON FOG       50  50 100 W36G44      N/A  VSB 0
$$

NYZ052-076-311700-
EASTERN NEW YORK

CITY           SKY/WX    TMP DP  RH WIND       PRES   REMARKS
ALBANY         CLOUDY    72  63  73 VRB3      29.95F
NEW YORK CITY  PTSUNNY   86  65  49 SW9       29.96F
$$

ANZALL-311700-
MARINE OBSERVATIONS

STATION/POSITION TIME  TEMP    WIND        PRES    VSBY  WAVE
                       AIR SEA DIR/SP/G                  HT/PER
                 (UTC) (F)     (DEG/KT/KT) (MB)    (MI)  (FT/S)
BOSTON BUOY      1550   72 68  220/  4/  6 1013.7F         2/11
BUZZARDS BAY     1500   73     230/ 12/ 13 1015.9F
NANTUCKET SOUND  1550   74 74  230/ 14/ 16 1014.7F         1/11
MASS BAY-STELLWA 1504   68 66  210/  6/  6 1014.0F  1 7/8  2/10
ISLE OF SHOALS   1500   71     230/  8/  9 1013.7F
S OF BLOCK IS    1525      75                N/A           3/11
$$

......................KEY.........................
  SKY/WX - SKY CONDITION/PRESENT WEATHER
  TMP    - TEMPERATURE IN FAHRENHEIT
  DWPT   - DEWPOINT IN FAHRENHEIT
  RH     - RELATIVE HUMIDITY IN PERCENT
  WIND   - DIRECTION AND SPEED IN MPH
  PRES   - MEAN SEA LEVEL PRESSURE IN INCHES OF HG
  WCI    - WIND CHILL INDEX
  VSB    - VISIBILITY IN MILES
  HX     - HEAT INDEX
  TC     - TEMPERATURE IN CELSIUS
  VRB    - VARIABLE WIND DIRECTION
  N/A    - NOT AVAILABLE




USA.gov is the U.S. government's official web portal to all federal, state and local government web resources and services.